Year,Month,Day,Hour,Minute,Value (Times are PST for windspeed in km/hr)
2009,07,01,00,00,24.10
2009,07,01,00,01,26.70
2009,07,01,00,02,23.30
2009,07,01,00,03,23.60
2009,07,01,00,04,24.30
2009,07,01,00,05,30.70
2009,07,01,00,06,22.70
2009,07,01,00,07,28.10
2009,07,01,00,08,26.40
2009,07,01,00,09,22.10
2009,07,01,00,10,20.30
2009,07,01,00,11,20.10
2009,07,01,00,12,21.10
2009,07,01,00,13,19.80
2009,07,01,00,14,22.30
2009,07,01,00,15,19.80
2009,07,01,00,16,21.40
2009,07,01,00,17,23.90
2009,07,01,00,18,23.30
2009,07,01,00,19,22.00
2009,07,01,00,20,23.10
2009,07,01,00,21,20.80
2009,07,01,00,22,24.90
2009,07,01,00,23,23.40
2009,07,01,00,24,20.80
2009,07,01,00,25,24.80
2009,07,01,00,26,24.10
2009,07,01,00,27,25.50
2009,07,01,00,28,18.00
2009,07,01,00,29,19.60
2009,07,01,00,30,20.70
2009,07,01,00,31,17.60
2009,07,01,00,32,23.30
2009,07,01,00,33,24.80
2009,07,01,00,34,29.40
2009,07,01,00,35,24.50
2009,07,01,00,36,23.70
2009,07,01,00,37,32.20
2009,07,01,00,38,24.80
2009,07,01,00,39,26.30
2009,07,01,00,40,22.20
2009,07,01,00,41,20.60
2009,07,01,00,42,20.50
2009,07,01,00,43,27.40
2009,07,01,00,44,25.70
2009,07,01,00,45,22.00
2009,07,01,00,46,25.20
2009,07,01,00,47,25.50
2009,07,01,00,48,20.20
2009,07,01,00,49,27.00
2009,07,01,00,50,26.60
2009,07,01,00,51,24.50
2009,07,01,00,52,23.30
2009,07,01,00,53,22.40
2009,07,01,00,54,21.90
2009,07,01,00,55,20.60
2009,07,01,00,56,20.70
2009,07,01,00,57,15.40
2009,07,01,00,58,23.00
2009,07,01,00,59,18.80
2009,07,01,01,00,17.50
2009,07,01,01,01,17.60
2009,07,01,01,02,18.80
2009,07,01,01,03,17.70
2009,07,01,01,04,17.10
2009,07,01,01,05,21.90
2009,07,01,01,06,22.50
2009,07,01,01,07,20.70
2009,07,01,01,08,25.90
2009,07,01,01,09,20.80
2009,07,01,01,10,21.30
2009,07,01,01,11,15.40
2009,07,01,01,12,22.50
2009,07,01,01,13,22.80
2009,07,01,01,14,20.00
2009,07,01,01,15,17.90
2009,07,01,01,16,22.30
2009,07,01,01,17,21.20
2009,07,01,01,18,17.90
2009,07,01,01,19,14.50
2009,07,01,01,20,22.30
2009,07,01,01,21,23.00
2009,07,01,01,22,19.80
2009,07,01,01,23,23.20
2009,07,01,01,24,26.60
2009,07,01,01,25,22.80
2009,07,01,01,26,13.30
2009,07,01,01,27,17.70
2009,07,01,01,28,22.00
2009,07,01,01,29,21.50
2009,07,01,01,30,18.10
2009,07,01,01,31,18.00
2009,07,01,01,32,16.70
2009,07,01,01,33,20.20
2009,07,01,01,34,20.40
2009,07,01,01,35,28.00
2009,07,01,01,36,28.90
2009,07,01,01,37,26.90
2009,07,01,01,38,28.40
2009,07,01,01,39,23.60
2009,07,01,01,40,24.60
2009,07,01,01,41,25.50
2009,07,01,01,42,23.60
2009,07,01,01,43,26.80
2009,07,01,01,44,28.60
2009,07,01,01,45,22.40
2009,07,01,01,46,23.60
2009,07,01,01,47,23.50
2009,07,01,01,48,22.50
2009,07,01,01,49,25.60
2009,07,01,01,50,20.80
2009,07,01,01,51,22.40
2009,07,01,01,52,24.40
2009,07,01,01,53,25.00
2009,07,01,01,54,30.50
2009,07,01,01,55,24.20
2009,07,01,01,56,21.10
2009,07,01,01,57,24.70
2009,07,01,01,58,27.80
2009,07,01,01,59,26.90
2009,07,01,02,00,27.00
2009,07,01,02,01,27.00
2009,07,01,02,02,31.50
2009,07,01,02,03,24.50
2009,07,01,02,04,22.00
2009,07,01,02,05,24.00
2009,07,01,02,06,33.20
2009,07,01,02,07,33.70
2009,07,01,02,08,29.50
2009,07,01,02,09,33.20
2009,07,01,02,10,23.00
2009,07,01,02,11,32.20
2009,07,01,02,12,25.80
2009,07,01,02,13,25.20
2009,07,01,02,14,29.10
2009,07,01,02,15,29.20
2009,07,01,02,16,31.50
2009,07,01,02,17,27.60
2009,07,01,02,18,30.90
2009,07,01,02,19,29.40
2009,07,01,02,20,27.30
2009,07,01,02,21,22.70
2009,07,01,02,22,23.70
2009,07,01,02,23,23.50
2009,07,01,02,24,30.00
2009,07,01,02,25,28.00
2009,07,01,02,26,23.50
2009,07,01,02,27,35.30
2009,07,01,02,28,24.30
2009,07,01,02,29,24.40
2009,07,01,02,30,26.60
2009,07,01,02,31,27.30
2009,07,01,02,32,32.40
2009,07,01,02,33,24.10
2009,07,01,02,34,22.90
2009,07,01,02,35,25.40
2009,07,01,02,36,28.90
2009,07,01,02,37,29.50
2009,07,01,02,38,34.60
2009,07,01,02,39,27.00
2009,07,01,02,40,27.90
2009,07,01,02,41,26.00
2009,07,01,02,42,23.30
2009,07,01,02,43,23.30
2009,07,01,02,44,23.90
2009,07,01,02,45,20.30
2009,07,01,02,46,22.70
2009,07,01,02,47,25.20
2009,07,01,02,48,22.00
2009,07,01,02,49,16.80
2009,07,01,02,50,26.60
2009,07,01,02,51,23.50
2009,07,01,02,52,23.20
2009,07,01,02,53,26.50
2009,07,01,02,54,24.50
2009,07,01,02,55,23.50
2009,07,01,02,56,22.80
2009,07,01,02,57,21.60
2009,07,01,02,58,22.20
2009,07,01,02,59,21.10
2009,07,01,03,00,21.90
2009,07,01,03,01,24.10
2009,07,01,03,02,19.80
2009,07,01,03,03,27.40
2009,07,01,03,04,18.70
2009,07,01,03,05,19.20
2009,07,01,03,06,24.90
2009,07,01,03,07,23.20
2009,07,01,03,08,19.50
2009,07,01,03,09,15.30
2009,07,01,03,10,19.30
2009,07,01,03,11,22.20
2009,07,01,03,12,17.90
2009,07,01,03,13,21.90
2009,07,01,03,14,21.20
2009,07,01,03,15,19.40
2009,07,01,03,16,21.50
2009,07,01,03,17,24.60
2009,07,01,03,18,24.30
2009,07,01,03,19,23.20
2009,07,01,03,20,23.00
2009,07,01,03,21,20.10
2009,07,01,03,22,20.10
2009,07,01,03,23,17.10
2009,07,01,03,24,19.00
2009,07,01,03,25,30.00
2009,07,01,03,26,30.60
2009,07,01,03,27,26.30
2009,07,01,03,28,24.70
2009,07,01,03,29,19.10
2009,07,01,03,30,19.00
2009,07,01,03,31,20.30
2009,07,01,03,32,18.50
2009,07,01,03,33,18.20
2009,07,01,03,34,16.50
2009,07,01,03,35,17.40
2009,07,01,03,36,15.20
2009,07,01,03,37,17.20
2009,07,01,03,38,16.00
2009,07,01,03,39,19.50
2009,07,01,03,40,19.70
2009,07,01,03,41,13.00
2009,07,01,03,42,19.20
2009,07,01,03,43,17.50
2009,07,01,03,44,17.10
2009,07,01,03,45,22.20
2009,07,01,03,46,22.30
2009,07,01,03,47,15.30
2009,07,01,03,48,16.90
2009,07,01,03,49,19.60
2009,07,01,03,50,21.20
2009,07,01,03,51,22.60
2009,07,01,03,52,16.30
2009,07,01,03,53,20.20
2009,07,01,03,54,19.70
2009,07,01,03,55,20.30
2009,07,01,03,56,17.40
2009,07,01,03,57,16.50
2009,07,01,03,58,14.30
2009,07,01,03,59,14.30
2009,07,01,04,00,11.70
2009,07,01,04,01,15.30
2009,07,01,04,02,16.80
2009,07,01,04,03,19.20
2009,07,01,04,04,16.00
2009,07,01,04,05,15.70
2009,07,01,04,06,14.70
2009,07,01,04,07,14.80
2009,07,01,04,08,17.10
2009,07,01,04,09,12.90
2009,07,01,04,10,17.00
2009,07,01,04,11,24.80
2009,07,01,04,12,24.10
2009,07,01,04,13,25.90
2009,07,01,04,14,21.40
2009,07,01,04,15,22.00
2009,07,01,04,16,20.00
2009,07,01,04,17,19.30
2009,07,01,04,18,19.00
2009,07,01,04,19,18.20
2009,07,01,04,20,23.40
2009,07,01,04,21,15.60
2009,07,01,04,22,20.00
2009,07,01,04,23,17.70
2009,07,01,04,24,17.90
2009,07,01,04,25,16.70
2009,07,01,04,26,19.00
2009,07,01,04,27,16.00
2009,07,01,04,28,21.50
2009,07,01,04,29,21.20
2009,07,01,04,30,18.20
2009,07,01,04,31,21.40
2009,07,01,04,32,16.10
2009,07,01,04,33,23.50
2009,07,01,04,34,18.90
2009,07,01,04,35,17.70
2009,07,01,04,36,22.20
2009,07,01,04,37,18.10
2009,07,01,04,38,20.80
2009,07,01,04,39,19.70
2009,07,01,04,40,17.70
2009,07,01,04,41,17.10
2009,07,01,04,42,15.80
2009,07,01,04,43,13.70
2009,07,01,04,44,15.50
2009,07,01,04,45,13.30
2009,07,01,04,46,18.20
2009,07,01,04,47,15.30
2009,07,01,04,48,20.00
2009,07,01,04,49,21.10
2009,07,01,04,50,19.90
2009,07,01,04,51,20.70
2009,07,01,04,52,16.20
2009,07,01,04,53,14.30
2009,07,01,04,54,15.80
2009,07,01,04,55,14.70
2009,07,01,04,56,18.60
2009,07,01,04,57,19.70
2009,07,01,04,58,19.50
2009,07,01,04,59,14.90
2009,07,01,05,00,14.60
2009,07,01,05,01,10.30
2009,07,01,05,02,15.80
2009,07,01,05,03,14.60
2009,07,01,05,04,16.60
2009,07,01,05,05,16.10
2009,07,01,05,06,19.00
2009,07,01,05,07,20.70
2009,07,01,05,08,16.20
2009,07,01,05,09,13.70
2009,07,01,05,10,15.70
2009,07,01,05,11,14.90
2009,07,01,05,12,17.70
2009,07,01,05,13,14.70
2009,07,01,05,14,15.90
2009,07,01,05,15,20.90
2009,07,01,05,16,21.20
2009,07,01,05,17,16.70
2009,07,01,05,18,21.10
2009,07,01,05,19,16.80
2009,07,01,05,20,20.80
2009,07,01,05,21,20.00
2009,07,01,05,22,22.40
2009,07,01,05,23,21.20
2009,07,01,05,24,18.70
2009,07,01,05,25,16.80
2009,07,01,05,26,12.80
2009,07,01,05,27,16.80
2009,07,01,05,28,13.20
2009,07,01,05,29,16.30
2009,07,01,05,30,20.30
2009,07,01,05,31,20.20
2009,07,01,05,32,17.70
2009,07,01,05,33,20.00
2009,07,01,05,34,18.70
2009,07,01,05,35,12.80
2009,07,01,05,36,17.40
2009,07,01,05,37,11.70
2009,07,01,05,38,11.70
2009,07,01,05,39,14.20
2009,07,01,05,40,19.50
2009,07,01,05,41,18.70
2009,07,01,05,42,17.90
2009,07,01,05,43,16.40
2009,07,01,05,44,12.40
2009,07,01,05,45,19.10
2009,07,01,05,46,19.20
2009,07,01,05,47,20.00
2009,07,01,05,48,16.30
2009,07,01,05,49,13.90
2009,07,01,05,50,18.60
2009,07,01,05,51,20.00
2009,07,01,05,52,17.20
2009,07,01,05,53,17.90
2009,07,01,05,54,17.50
2009,07,01,05,55,17.50
2009,07,01,05,56,17.90
2009,07,01,05,57,14.70
2009,07,01,05,58,14.20
2009,07,01,05,59,18.80
2009,07,01,06,00,19.80
2009,07,01,06,01,17.70
2009,07,01,06,02,13.10
2009,07,01,06,03,14.70
2009,07,01,06,04,18.30
2009,07,01,06,05,16.90
2009,07,01,06,06,19.50
2009,07,01,06,07,19.60
2009,07,01,06,08,14.80
2009,07,01,06,09,20.40
2009,07,01,06,10,17.30
2009,07,01,06,11,19.10
2009,07,01,06,12,17.10
2009,07,01,06,13,16.70
2009,07,01,06,14,20.60
2009,07,01,06,15,17.70
2009,07,01,06,16,13.80
2009,07,01,06,17,16.30
2009,07,01,06,18,16.30
2009,07,01,06,19,23.60
2009,07,01,06,20,18.10
2009,07,01,06,21,17.90
2009,07,01,06,22,22.30
2009,07,01,06,23,22.30
2009,07,01,06,24,20.60
2009,07,01,06,25,14.50
2009,07,01,06,26,18.70
2009,07,01,06,27,19.60
2009,07,01,06,28,23.60
2009,07,01,06,29,20.20
2009,07,01,06,30,18.90
2009,07,01,06,31,11.00
2009,07,01,06,32,19.60
2009,07,01,06,33,15.50
2009,07,01,06,34,13.20
2009,07,01,06,35,12.00
2009,07,01,06,36,20.70
2009,07,01,06,37,16.70
2009,07,01,06,38,19.70
2009,07,01,06,39,19.30
2009,07,01,06,40,16.30
2009,07,01,06,41,20.10
2009,07,01,06,42,17.20
2009,07,01,06,43,14.10
2009,07,01,06,44,16.10
2009,07,01,06,45,14.80
2009,07,01,06,46,14.40
2009,07,01,06,47,9.50
2009,07,01,06,48,18.50
2009,07,01,06,49,15.50
2009,07,01,06,50,16.20
2009,07,01,06,51,20.80
2009,07,01,06,52,19.00
2009,07,01,06,53,14.20
2009,07,01,06,54,18.10
2009,07,01,06,55,22.50
2009,07,01,06,56,19.00
2009,07,01,06,57,17.90
2009,07,01,06,58,17.70
2009,07,01,06,59,16.60
2009,07,01,07,00,16.30
2009,07,01,07,01,23.60
2009,07,01,07,02,24.60
2009,07,01,07,03,28.30
2009,07,01,07,04,23.90
2009,07,01,07,05,18.60
2009,07,01,07,06,22.40
2009,07,01,07,07,26.20
2009,07,01,07,08,20.80
2009,07,01,07,09,20.00
2009,07,01,07,10,23.60
2009,07,01,07,11,21.40
2009,07,01,07,12,24.90
2009,07,01,07,13,18.70
2009,07,01,07,14,18.60
2009,07,01,07,15,20.90
2009,07,01,07,16,20.00
2009,07,01,07,17,19.50
2009,07,01,07,18,22.20
2009,07,01,07,19,20.00
2009,07,01,07,20,26.90
2009,07,01,07,21,24.10
2009,07,01,07,22,21.80
2009,07,01,07,23,24.10
2009,07,01,07,24,22.80
2009,07,01,07,25,19.10
2009,07,01,07,26,21.70
2009,07,01,07,27,19.00
2009,07,01,07,28,20.20
2009,07,01,07,29,20.00
2009,07,01,07,30,19.20
2009,07,01,07,31,18.70
2009,07,01,07,32,21.20
2009,07,01,07,33,21.80
2009,07,01,07,34,23.50
2009,07,01,07,35,25.40
2009,07,01,07,36,18.60
2009,07,01,07,37,22.00
2009,07,01,07,38,20.50
2009,07,01,07,39,24.60
2009,07,01,07,40,23.00
2009,07,01,07,41,28.40
2009,07,01,07,42,24.50
2009,07,01,07,43,23.70
2009,07,01,07,44,24.90
2009,07,01,07,45,20.60
2009,07,01,07,46,23.70
2009,07,01,07,47,23.20
2009,07,01,07,48,23.50
2009,07,01,07,49,23.80
2009,07,01,07,50,24.10
2009,07,01,07,51,21.20
2009,07,01,07,52,21.30
2009,07,01,07,53,28.00
2009,07,01,07,54,28.00
2009,07,01,07,55,22.50
2009,07,01,07,56,22.20
2009,07,01,07,57,24.10
2009,07,01,07,58,26.60
2009,07,01,07,59,24.40
2009,07,01,08,00,19.60
2009,07,01,08,01,23.40
2009,07,01,08,02,28.30
2009,07,01,08,03,30.90
2009,07,01,08,04,26.60
2009,07,01,08,05,20.40
2009,07,01,08,06,24.10
2009,07,01,08,07,24.10
2009,07,01,08,08,20.20
2009,07,01,08,09,19.80
2009,07,01,08,10,17.50
2009,07,01,08,11,22.20
2009,07,01,08,12,21.20
2009,07,01,08,13,15.80
2009,07,01,08,14,22.60
2009,07,01,08,15,21.80
2009,07,01,08,16,22.50
2009,07,01,08,17,23.20
2009,07,01,08,18,18.00
2009,07,01,08,19,22.70
2009,07,01,08,20,18.20
2009,07,01,08,21,21.00
2009,07,01,08,22,22.70
2009,07,01,08,23,19.60
2009,07,01,08,24,22.80
2009,07,01,08,25,24.60
2009,07,01,08,26,23.90
2009,07,01,08,27,19.40
2009,07,01,08,28,20.30
2009,07,01,08,29,23.00
2009,07,01,08,30,18.70
2009,07,01,08,31,15.90
2009,07,01,08,32,18.20
2009,07,01,08,33,21.80
2009,07,01,08,34,20.10
2009,07,01,08,35,18.30
2009,07,01,08,36,17.70
2009,07,01,08,37,17.90
2009,07,01,08,38,18.70
2009,07,01,08,39,27.80
2009,07,01,08,40,31.10
2009,07,01,08,41,24.10
2009,07,01,08,42,24.80
2009,07,01,08,43,19.30
2009,07,01,08,44,19.10
2009,07,01,08,45,13.50
2009,07,01,08,46,15.20
2009,07,01,08,47,26.50
2009,07,01,08,48,27.10
2009,07,01,08,49,29.20
2009,07,01,08,50,24.80
2009,07,01,08,51,25.50
2009,07,01,08,52,24.60
2009,07,01,08,53,19.50
2009,07,01,08,54,17.10
2009,07,01,08,55,19.60
2009,07,01,08,56,13.80
2009,07,01,08,57,17.10
2009,07,01,08,58,18.00
2009,07,01,08,59,24.90
2009,07,01,09,00,23.20
2009,07,01,09,01,24.60
2009,07,01,09,02,24.60
2009,07,01,09,03,32.30
2009,07,01,09,04,24.30
2009,07,01,09,05,18.40
2009,07,01,09,06,23.50
2009,07,01,09,07,17.80
2009,07,01,09,08,10.50
2009,07,01,09,09,19.30
2009,07,01,09,10,23.70
2009,07,01,09,11,26.00
2009,07,01,09,12,25.30
2009,07,01,09,13,25.00
2009,07,01,09,14,18.50
2009,07,01,09,15,20.20
2009,07,01,09,16,21.60
2009,07,01,09,17,23.70
2009,07,01,09,18,19.00
2009,07,01,09,19,21.60
2009,07,01,09,20,25.90
2009,07,01,09,21,23.20
2009,07,01,09,22,21.20
2009,07,01,09,23,24.60
2009,07,01,09,24,22.40
2009,07,01,09,25,23.00
2009,07,01,09,26,23.20
2009,07,01,09,27,18.60
2009,07,01,09,28,19.00
2009,07,01,09,29,21.90
2009,07,01,09,30,25.40
2009,07,01,09,31,26.60
2009,07,01,09,32,21.50
2009,07,01,09,33,16.80
2009,07,01,09,34,24.90
2009,07,01,09,35,23.30
2009,07,01,09,36,17.60
2009,07,01,09,37,23.00
2009,07,01,09,38,20.90
2009,07,01,09,39,16.00
2009,07,01,09,40,17.00
2009,07,01,09,41,19.50
2009,07,01,09,42,22.40
2009,07,01,09,43,21.90
2009,07,01,09,44,20.80
2009,07,01,09,45,19.90
2009,07,01,09,46,20.70
2009,07,01,09,47,19.40
2009,07,01,09,48,20.60
2009,07,01,09,49,19.80
2009,07,01,09,50,23.70
2009,07,01,09,51,21.30
2009,07,01,09,52,24.70
2009,07,01,09,53,24.30
2009,07,01,09,54,19.30
2009,07,01,09,55,20.50
2009,07,01,09,56,17.60
2009,07,01,09,57,27.30
2009,07,01,09,58,21.60
2009,07,01,09,59,25.50
2009,07,01,10,00,20.20
2009,07,01,10,01,17.90
2009,07,01,10,02,21.20
2009,07,01,10,03,23.00
2009,07,01,10,04,20.60
2009,07,01,10,05,22.50
2009,07,01,10,06,20.80
2009,07,01,10,07,23.00
2009,07,01,10,08,20.40
2009,07,01,10,09,17.00
2009,07,01,10,10,21.40
2009,07,01,10,11,21.90
2009,07,01,10,12,22.90
2009,07,01,10,13,17.70
2009,07,01,10,14,20.70
2009,07,01,10,15,25.80
2009,07,01,10,16,22.90
2009,07,01,10,17,21.70
2009,07,01,10,18,18.90
2009,07,01,10,19,24.60
2009,07,01,10,20,19.60
2009,07,01,10,21,22.50
2009,07,01,10,22,18.00
2009,07,01,10,23,21.40
2009,07,01,10,24,17.50
2009,07,01,10,25,27.60
2009,07,01,10,26,24.80
2009,07,01,10,27,27.40
2009,07,01,10,28,27.90
2009,07,01,10,29,26.60
2009,07,01,10,30,27.40
2009,07,01,10,31,21.60
2009,07,01,10,32,21.80
2009,07,01,10,33,27.50
2009,07,01,10,34,27.30
2009,07,01,10,35,21.20
2009,07,01,10,36,19.80
2009,07,01,10,37,18.80
2009,07,01,10,38,22.50
2009,07,01,10,39,23.80
2009,07,01,10,40,31.10
2009,07,01,10,41,24.10
2009,07,01,10,42,22.00
2009,07,01,10,43,23.90
2009,07,01,10,44,21.70
2009,07,01,10,45,21.70
2009,07,01,10,46,22.80
2009,07,01,10,47,20.70
2009,07,01,10,48,20.10
2009,07,01,10,49,27.00
2009,07,01,10,50,29.20
2009,07,01,10,51,29.40
2009,07,01,10,52,25.70
2009,07,01,10,53,27.40
2009,07,01,10,54,20.00
2009,07,01,10,55,18.20
2009,07,01,10,56,23.00
2009,07,01,10,57,25.50
2009,07,01,10,58,23.00
2009,07,01,10,59,20.00
2009,07,01,11,00,23.00
2009,07,01,11,01,21.20
2009,07,01,11,02,20.10
2009,07,01,11,03,19.00
2009,07,01,11,04,26.80
2009,07,01,11,05,31.30
2009,07,01,11,06,22.60
2009,07,01,11,07,30.80
2009,07,01,11,08,24.40
2009,07,01,11,09,24.50
2009,07,01,11,10,28.20
2009,07,01,11,11,25.50
2009,07,01,11,12,29.40
2009,07,01,11,13,24.30
2009,07,01,11,14,20.10
2009,07,01,11,15,27.80
2009,07,01,11,16,24.90
2009,07,01,11,17,25.40
2009,07,01,11,18,25.50
2009,07,01,11,19,24.20
2009,07,01,11,20,24.10
2009,07,01,11,21,26.30
2009,07,01,11,22,24.80
2009,07,01,11,23,24.10
2009,07,01,11,24,23.10
2009,07,01,11,25,18.10
2009,07,01,11,26,24.10
2009,07,01,11,27,27.50
2009,07,01,11,28,23.90
2009,07,01,11,29,22.40
2009,07,01,11,30,27.30
2009,07,01,11,31,21.30
2009,07,01,11,32,22.30
2009,07,01,11,33,25.10
2009,07,01,11,34,20.00
2009,07,01,11,35,23.30
2009,07,01,11,36,25.60
2009,07,01,11,37,27.10
2009,07,01,11,38,24.70
2009,07,01,11,39,25.10
2009,07,01,11,40,24.50
2009,07,01,11,41,30.40
2009,07,01,11,42,29.00
2009,07,01,11,43,24.10
2009,07,01,11,44,26.50
2009,07,01,11,45,22.80
2009,07,01,11,46,26.80
2009,07,01,11,47,20.50
2009,07,01,11,48,24.00
2009,07,01,11,49,25.20
2009,07,01,11,50,30.70
2009,07,01,11,51,25.90
2009,07,01,11,52,22.90
2009,07,01,11,53,30.80
2009,07,01,11,54,28.60
2009,07,01,11,55,23.90
2009,07,01,11,56,23.50
2009,07,01,11,57,28.30
2009,07,01,11,58,26.60
2009,07,01,11,59,25.70
2009,07,01,12,00,23.30
2009,07,01,12,01,24.90
2009,07,01,12,02,22.90
2009,07,01,12,03,23.40
2009,07,01,12,04,24.70
2009,07,01,12,05,25.50
2009,07,01,12,06,22.70
2009,07,01,12,07,32.10
2009,07,01,12,08,25.80
2009,07,01,12,09,25.50
2009,07,01,12,10,28.60
2009,07,01,12,11,23.60
2009,07,01,12,12,24.90
2009,07,01,12,13,20.80
2009,07,01,12,14,25.50
2009,07,01,12,15,25.40
2009,07,01,12,16,26.40
2009,07,01,12,17,27.40
2009,07,01,12,18,24.40
2009,07,01,12,19,17.50
2009,07,01,12,20,31.90
2009,07,01,12,21,32.40
2009,07,01,12,22,28.00
2009,07,01,12,23,26.10
2009,07,01,12,24,27.60
2009,07,01,12,25,26.60
2009,07,01,12,26,28.00
2009,07,01,12,27,32.00
2009,07,01,12,28,28.30
2009,07,01,12,29,26.60
2009,07,01,12,30,27.70
2009,07,01,12,31,24.80
2009,07,01,12,32,29.70
2009,07,01,12,33,29.30
2009,07,01,12,34,26.30
2009,07,01,12,35,31.10
2009,07,01,12,36,26.70
2009,07,01,12,37,29.10
2009,07,01,12,38,25.80
2009,07,01,12,39,31.30
2009,07,01,12,40,26.90
2009,07,01,12,41,26.80
2009,07,01,12,42,23.70
2009,07,01,12,43,27.80
2009,07,01,12,44,25.00
2009,07,01,12,45,22.70
2009,07,01,12,46,24.90
2009,07,01,12,47,21.10
2009,07,01,12,48,26.50
2009,07,01,12,49,23.10
2009,07,01,12,50,25.30
2009,07,01,12,51,23.50
2009,07,01,12,52,22.70
2009,07,01,12,53,24.90
2009,07,01,12,54,22.80
2009,07,01,12,55,23.70
2009,07,01,12,56,21.90
2009,07,01,12,57,23.60
2009,07,01,12,58,21.60
2009,07,01,12,59,26.90
2009,07,01,13,00,26.30
2009,07,01,13,01,29.30
2009,07,01,13,02,27.60
2009,07,01,13,03,24.10
2009,07,01,13,04,23.50
2009,07,01,13,05,24.90
2009,07,01,13,06,27.80
2009,07,01,13,07,21.90
2009,07,01,13,08,27.30
2009,07,01,13,09,25.30
2009,07,01,13,10,24.60
2009,07,01,13,11,23.00
2009,07,01,13,12,29.40
2009,07,01,13,13,24.10
2009,07,01,13,14,23.60
2009,07,01,13,15,24.60
2009,07,01,13,16,26.20
2009,07,01,13,17,25.00
2009,07,01,13,18,24.40
2009,07,01,13,19,27.60
2009,07,01,13,20,25.80
2009,07,01,13,21,26.70
2009,07,01,13,22,21.80
2009,07,01,13,23,22.90
2009,07,01,13,24,28.70
2009,07,01,13,25,25.50
2009,07,01,13,26,24.80
2009,07,01,13,27,25.70
2009,07,01,13,28,22.90
2009,07,01,13,29,22.10
2009,07,01,13,30,17.90
2009,07,01,13,31,17.20
2009,07,01,13,32,19.60
2009,07,01,13,33,27.00
2009,07,01,13,34,26.80
2009,07,01,13,35,28.50
2009,07,01,13,36,31.00
2009,07,01,13,37,24.90
2009,07,01,13,38,24.80
2009,07,01,13,39,24.40
2009,07,01,13,40,26.10
2009,07,01,13,41,25.50
2009,07,01,13,42,21.90
2009,07,01,13,43,23.20
2009,07,01,13,44,23.30
2009,07,01,13,45,28.90
2009,07,01,13,46,26.70
2009,07,01,13,47,21.00
2009,07,01,13,48,24.60
2009,07,01,13,49,26.70
2009,07,01,13,50,24.80
2009,07,01,13,51,26.80
2009,07,01,13,52,28.60
2009,07,01,13,53,25.60
2009,07,01,13,54,26.00
2009,07,01,13,55,22.20
2009,07,01,13,56,18.60
2009,07,01,13,57,21.30
2009,07,01,13,58,26.00
2009,07,01,13,59,24.60
2009,07,01,14,00,20.00
2009,07,01,14,01,21.20
2009,07,01,14,02,24.50
2009,07,01,14,03,22.90
2009,07,01,14,04,21.60
2009,07,01,14,05,22.60
2009,07,01,14,06,21.60
2009,07,01,14,07,21.00
2009,07,01,14,08,22.10
2009,07,01,14,09,18.50
2009,07,01,14,10,19.80
2009,07,01,14,11,17.50
2009,07,01,14,12,22.90
2009,07,01,14,13,22.40
2009,07,01,14,14,20.10
2009,07,01,14,15,24.10
2009,07,01,14,16,22.70
2009,07,01,14,17,21.30
2009,07,01,14,18,20.80
2009,07,01,14,19,28.00
2009,07,01,14,20,21.70
2009,07,01,14,21,23.40
2009,07,01,14,22,28.50
2009,07,01,14,23,24.90
2009,07,01,14,24,25.50
2009,07,01,14,25,24.10
2009,07,01,14,26,24.30
2009,07,01,14,27,20.40
2009,07,01,14,28,18.20
2009,07,01,14,29,20.40
2009,07,01,14,30,20.30
2009,07,01,14,31,28.20
2009,07,01,14,32,24.80
2009,07,01,14,33,23.20
2009,07,01,14,34,26.20
2009,07,01,14,35,21.10
2009,07,01,14,36,24.10
2009,07,01,14,37,20.80
2009,07,01,14,38,24.50
2009,07,01,14,39,26.80
2009,07,01,14,40,23.30
2009,07,01,14,41,19.60
2009,07,01,14,42,19.40
2009,07,01,14,43,20.10
2009,07,01,14,44,26.50
2009,07,01,14,45,23.50
2009,07,01,14,46,18.90
2009,07,01,14,47,24.90
2009,07,01,14,48,21.30
2009,07,01,14,49,21.10
2009,07,01,14,50,20.60
2009,07,01,14,51,22.80
2009,07,01,14,52,24.10
2009,07,01,14,53,22.50
2009,07,01,14,54,21.70
2009,07,01,14,55,21.10
2009,07,01,14,56,23.50
2009,07,01,14,57,20.70
2009,07,01,14,58,24.10
2009,07,01,14,59,22.60
2009,07,01,15,00,25.10
2009,07,01,15,01,23.80
2009,07,01,15,02,22.00
2009,07,01,15,03,29.10
2009,07,01,15,04,21.30
2009,07,01,15,05,19.90
2009,07,01,15,06,20.80
2009,07,01,15,07,20.80
2009,07,01,15,08,20.50
2009,07,01,15,09,24.40
2009,07,01,15,10,25.20
2009,07,01,15,11,23.50
2009,07,01,15,12,17.90
2009,07,01,15,13,21.50
2009,07,01,15,14,23.00
2009,07,01,15,15,23.20
2009,07,01,15,16,22.80
2009,07,01,15,17,22.10
2009,07,01,15,18,22.50
2009,07,01,15,19,20.70
2009,07,01,15,20,19.50
2009,07,01,15,21,17.40
2009,07,01,15,22,23.20
2009,07,01,15,23,28.10
2009,07,01,15,24,23.00
2009,07,01,15,25,19.60
2009,07,01,15,26,19.50
2009,07,01,15,27,23.50
2009,07,01,15,28,18.80
2009,07,01,15,29,18.80
2009,07,01,15,30,17.40
2009,07,01,15,31,20.10
2009,07,01,15,32,18.40
2009,07,01,15,33,22.40
2009,07,01,15,34,19.60
2009,07,01,15,35,19.60
2009,07,01,15,36,17.30
2009,07,01,15,37,19.70
2009,07,01,15,38,15.70
2009,07,01,15,39,19.80
2009,07,01,15,40,17.90
2009,07,01,15,41,23.70
2009,07,01,15,42,15.30
2009,07,01,15,43,20.00
2009,07,01,15,44,18.00
2009,07,01,15,45,21.40
2009,07,01,15,46,17.00
2009,07,01,15,47,26.00
2009,07,01,15,48,26.10
2009,07,01,15,49,22.50
2009,07,01,15,50,22.00
2009,07,01,15,51,21.20
2009,07,01,15,52,29.40
2009,07,01,15,53,22.90
2009,07,01,15,54,24.90
2009,07,01,15,55,23.90
2009,07,01,15,56,19.50
2009,07,01,15,57,30.00
2009,07,01,15,58,25.50
2009,07,01,15,59,22.90
2009,07,01,16,00,22.90
2009,07,01,16,01,16.10
2009,07,01,16,02,20.40
2009,07,01,16,03,20.80
2009,07,01,16,04,21.60
2009,07,01,16,05,15.40
2009,07,01,16,06,16.90
2009,07,01,16,07,17.80
2009,07,01,16,08,16.30
2009,07,01,16,09,22.20
2009,07,01,16,10,21.80
2009,07,01,16,11,18.70
2009,07,01,16,12,23.00
2009,07,01,16,13,24.50
2009,07,01,16,14,17.80
2009,07,01,16,15,23.30
2009,07,01,16,16,17.50
2009,07,01,16,17,18.80
2009,07,01,16,18,18.40
2009,07,01,16,19,19.70
2009,07,01,16,20,18.30
2009,07,01,16,21,18.90
2009,07,01,16,22,12.10
2009,07,01,16,23,17.70
2009,07,01,16,24,19.60
2009,07,01,16,25,18.60
2009,07,01,16,26,20.00
2009,07,01,16,27,22.80
2009,07,01,16,28,16.80
2009,07,01,16,29,21.60
2009,07,01,16,30,21.90
2009,07,01,16,31,24.10
2009,07,01,16,32,22.40
2009,07,01,16,33,22.00
2009,07,01,16,34,24.30
2009,07,01,16,35,21.40
2009,07,01,16,36,17.30
2009,07,01,16,37,16.70
2009,07,01,16,38,17.90
2009,07,01,16,39,18.90
2009,07,01,16,40,20.20
2009,07,01,16,41,20.60
2009,07,01,16,42,21.90
2009,07,01,16,43,15.60
2009,07,01,16,44,16.30
2009,07,01,16,45,19.60
2009,07,01,16,46,19.20
2009,07,01,16,47,16.80
2009,07,01,16,48,20.60
2009,07,01,16,49,20.10
2009,07,01,16,50,22.50
2009,07,01,16,51,23.30
2009,07,01,16,52,22.60
2009,07,01,16,53,20.80
2009,07,01,16,54,19.60
2009,07,01,16,55,22.90
2009,07,01,16,56,21.40
2009,07,01,16,57,21.30
2009,07,01,16,58,25.70
2009,07,01,16,59,22.30
2009,07,01,17,00,20.70
2009,07,01,17,01,21.30
2009,07,01,17,02,25.20
2009,07,01,17,03,22.60
2009,07,01,17,04,23.60
2009,07,01,17,05,23.30
2009,07,01,17,06,16.80
2009,07,01,17,07,15.50
2009,07,01,17,08,18.80
2009,07,01,17,09,21.20
2009,07,01,17,10,22.40
2009,07,01,17,11,25.90
2009,07,01,17,12,19.60
2009,07,01,17,13,23.00
2009,07,01,17,14,22.40
2009,07,01,17,15,23.30
2009,07,01,17,16,17.00
2009,07,01,17,17,21.10
2009,07,01,17,18,26.30
2009,07,01,17,19,25.80